Terug naar catalogus

CZ-4 DEB

ActiefPO
NORAD 26129·DEBRIS·🇨🇳 China

Gelanceerd Oct 14, 1999 vanaf Taiyuan Satellite Launch Center

Loading…

Volgende Passages (komende 24 uur)

TLE

VersSource: Space-Track

Epoch: Sep 13, 2026, 23:11 UTC

1 26129U 99057R   26256.96663298  .00000603  00000-0  44913-3 0  9993
2 26129  99.0094  75.7130 0435203 280.6773  74.5661 13.61427771310312

Volg CZ-4 DEB in realtime met AllMySat

Download on the App Store